Weather History for Milwaukee, WI

Change the Weather History Date:

Tuesday, March 19, 2013

  Actual Average Record
Temperature  
Mean Temperature 23 °F 36 °F  
Max Temperature 31 °F 44 °F 76 °F (1921)
Min Temperature 14 °F 29 °F -3 °F (1923)
Degree Days  
Heating Degree Days 42 29  
Month to date heating degree days 692 608  
Since 1 July heating degree days 5417 5588  
Cooling Degree Days 0 0  
Month to date cooling degree days 0 0  
Year to date cooling degree days 0 0  
Moisture  
Dew Point 9 °F    
Average Humidity 53    
Maximum Humidity 67    
Minimum Humidity 39    
Precipitation  
Precipitation T in 0.07 in 1.56 in (1948)
Month to date precipitation 1.62 1.25  
Year to date precipitation 7.82 4.66  
Snow  
Snow T in 0.20 in 10.00 in (1881)
Month to date snowfall 7.4 5.3  
Since 1 July snowfall 44.6 43.1  
Snow Depth 3.00 in    
Sea Level Pressure  
Sea Level Pressure 29.87 in    
Wind  
Wind Speed 18 mph (West)    
Max Wind Speed 28 mph    
Max Gust Speed 38 mph    
Visibility 9 miles    
Events Snow    
T = Trace of Precipitation, MM = Missing Value Source: NWS Daily Summary

Daily Weather History Graph

Daily Weather History Graph

Search for Another Location

Airport:

Trip Planner

Search our weather history database for the weather conditions in past years. The results will help you decide how hot, cold, wet, or windy it might be!

Date:

Astronomy

Mar. 19, 2013 Rise Set
Actual Time 6:56 AM CDT 7:03 PM CDT
Civil Twilight 6:27 AM CDT 7:31 PM CDT
Nautical Twilight 5:54 AM CDT 8:04 PM CDT
Astronomical Twilight 5:21 AM CDT 8:38 PM CDT
Moon 11:38 AM CDT (3/19) 1:57 AM CDT (3/19)
Length of Visible Light 13h 03m
Length of Day
12h 06m
Waxing Crescent, 50% of the Moon is Illuminated
Mar 19
Waxing Crescent
Mar 19
First Quarter
Mar 27
Full
Apr 2
Last Quarter
Apr 10
New

Hourly Weather History & Observations

Time (CDT) Temp. Windchill Dew Point Humidity Pressure Visibility Wind Dir Wind Speed Gust Speed Precip Events Conditions
12:52 AM 19.4 °F 4.1 °F 10.4 °F 68% 29.70 in 9.0 mi West 18.4 mph 26.5 mph N/A   Overcast
1:23 AM 19.4 °F 4.1 °F 10.4 °F 68% 29.70 in 10.0 mi West 18.4 mph 27.6 mph N/A   Overcast
1:52 AM 19.0 °F 5.0 °F 10.9 °F 71% 29.73 in 7.0 mi West 15.0 mph 21.9 mph 0.00 in Snow Light Snow
2:32 AM 17.6 °F 2.7 °F 8.6 °F 68% 29.71 in 9.0 mi West 16.1 mph 23.0 mph 0.00 in   Overcast
2:52 AM 18.0 °F 5.4 °F 9.0 °F 68% 29.74 in 10.0 mi West 11.5 mph 19.6 mph 0.00 in   Mostly Cloudy
3:52 AM 18.0 °F 3.1 °F 8.1 °F 65% 29.75 in 10.0 mi West 16.1 mph 26.5 mph N/A   Mostly Cloudy
4:52 AM 16.0 °F 1.1 °F 6.1 °F 65% 29.77 in 10.0 mi West 15.0 mph 26.5 mph N/A   Mostly Cloudy
5:52 AM 16.0 °F 1.1 °F 8.1 °F 71% 29.79 in 4.0 mi West 15.0 mph 24.2 mph 0.00 in Snow Light Snow
6:52 AM 17.1 °F 2.5 °F 8.1 °F 68% 29.79 in 10.0 mi West 15.0 mph 24.2 mph 0.00 in   Overcast
7:52 AM 15.1 °F -0.6 °F 7.0 °F 70% 29.81 in 8.0 mi West 16.1 mph 27.6 mph N/A   Mostly Cloudy
8:52 AM 16.0 °F -0.9 °F 7.0 °F 68% 29.83 in 5.0 mi West 19.6 mph 31.1 mph 0.00 in Snow Light Snow
9:52 AM 16.0 °F -0.4 °F 7.0 °F 68% 29.85 in 9.0 mi West 18.4 mph 27.6 mph 0.00 in   Mostly Cloudy
10:52 AM 19.0 °F 2.0 °F 7.0 °F 59% 29.85 in 10.0 mi West 23.0 mph 34.5 mph N/A   Scattered Clouds
11:52 AM 21.0 °F 5.4 °F 8.1 °F 57% 29.88 in 10.0 mi West 20.7 mph 34.5 mph N/A   Partly Cloudy
12:52 PM 24.1 °F 8.3 °F 9.0 °F 53% 29.90 in 10.0 mi West 24.2 mph 32.2 mph N/A   Partly Cloudy
1:52 PM 27.0 °F 11.9 °F 10.0 °F 49% 29.91 in 10.0 mi WNW 25.3 mph 32.2 mph N/A   Clear
2:52 PM 28.0 °F 13.9 °F 9.0 °F 45% 29.92 in 10.0 mi West 23.0 mph 33.4 mph N/A   Clear
3:52 PM 30.0 °F 16.9 °F 9.0 °F 41% 29.93 in 10.0 mi West 21.9 mph 29.9 mph N/A   Clear
4:52 PM 30.9 °F 18.1 °F 10.0 °F 42% 29.95 in 10.0 mi West 21.9 mph 29.9 mph N/A   Clear
5:52 PM 30.0 °F 17.5 °F 10.0 °F 43% 29.98 in 10.0 mi West 19.6 mph 32.2 mph N/A   Partly Cloudy
6:52 PM 28.0 °F 15.7 °F 10.0 °F 47% 29.99 in 10.0 mi West 17.3 mph 27.6 mph N/A   Scattered Clouds
7:52 PM 26.1 °F 13.6 °F 9.0 °F 49% 30.01 in 10.0 mi West 16.1 mph 29.9 mph N/A   Partly Cloudy
8:52 PM 25.0 °F 11.7 °F 9.0 °F 51% 30.02 in 10.0 mi West 17.3 mph 26.5 mph N/A   Clear
9:52 PM 24.1 °F 11.0 °F 8.1 °F 51% 30.02 in 10.0 mi West 16.1 mph 24.2 mph N/A   Clear
10:52 PM 23.0 °F 11.7 °F 8.1 °F 53% 30.04 in 10.0 mi West 11.5 mph 23.0 mph N/A   Partly Cloudy
11:52 PM 21.9 °F 9.8 °F 8.1 °F 55% 30.04 in 10.0 mi West 12.7 mph 20.7 mph N/A   Partly Cloudy